Tracking 19280 objects as of 15-Nov-2018
HD Live streaming from Space Station
objects crossing your sky now

OPS 4078 (DMSP 4B F2)

Track OPS 4078 (DMSP 4B F2) now!
10-day predictions
OPS 4078 (DMSP 4B F2) is classified as:


NORAD ID: 3510
Int'l Code: 1968-092A
Perigee: 787.0 km
Apogee: 829.8 km
Inclination: 98.3 °
Period: 100.9 minutes
Semi major axis: 7179 km
RCS: 0.6312 m2 (medium)
Launch date: October 23, 1968
Source: United States (US)
Launch site: AIR FORCE WESTERN TEST RANGE (AFWTR)
aabbcc
Your satellite tracking list
Your tracking list is empty




NASA's NSSDC Master Catalog

Two Line Element Set (TLE):
1  3510U 68092A   18318.61437941 -.00000004 +00000-0 +15132-4 0  9991
2  3510 098.2632 147.2653 0029745 201.0184 158.9777 14.27154815601832
Source of the keplerian elements: AFSPC